Presque Isle, ME

5:24 AM EST on November 21, 2017 (GMT -0500)
Northern Maine Regional At Presque Isle

Weather History for KPQI - December, 2013

Change the Weather History Date:

Saturday, December 14, 2013

  Actual Average Record
Temperature  
Mean Temperature -5 °F -  
Max Temperature 3 °F 27 °F 55 °F (2010)
Min Temperature -13 °F 10 °F -21 °F (1933)
Degree Days  
Heating Degree Days 70    
Moisture  
Dew Point -20 °F    
Average Humidity 51    
Maximum Humidity 84    
Minimum Humidity 25    
Precipitation  
Precipitation 0.00 in - - ()
Sea Level Pressure  
Sea Level Pressure 30.48 in    
Wind  
Wind Speed 5 mph (West)    
Max Wind Speed 14 mph    
Max Gust Speed 17 mph    
Visibility 10 miles    
Events      
Averages and records for this station are not official NWS values.
T = Trace of Precipitation, MM = Missing Value Source: NWS Daily Summary

Daily Weather History Graph

Daily Weather History Graph

Search for Another Location

Airport or City:

Trip Planner

Search our weather history database for the weather conditions in past years. The results will help you decide how hot, cold, wet, or windy it might be!

Date:

Astronomy

Dec. 14, 2013 Rise Set
Actual Time 7:09 AM EST 3:44 PM EST
Civil Twilight 6:34 AM EST 4:19 PM EST
Nautical Twilight 5:55 AM EST 4:58 PM EST
Astronomical Twilight 5:18 AM EST 5:35 PM EST
Moon 2:09 PM EST (12/14) 4:19 AM EST (12/14)
Length of Visible Light 9h 45m
Length of Day
8h 35m
Waxing Gibbous, 93% of the Moon is Illuminated
Dec 14
Waxing Gibbous
Dec 17
Full
Dec 25
Last Quarter
Jan 1
New
Jan 7
First Quarter

Hourly Weather History & Observations

Time (EST) Temp. Windchill Dew Point Humidity Pressure Visibility Wind Dir Wind Speed Gust Speed Precip Events Conditions
12:15 AM -9.4 °F -20.9 °F -20.2 °F 59% 30.28 in 10.0 mi West 4.6 mph - N/A   Clear
12:35 AM -9.4 °F -20.9 °F -22.0 °F 54% 30.29 in 10.0 mi West 4.6 mph - N/A   Clear
12:55 AM -9.4 °F -22.7 °F -20.2 °F 59% 30.29 in 10.0 mi WNW 5.8 mph - N/A   Clear
1:15 AM -9.4 °F -22.7 °F -20.2 °F 59% 30.30 in 10.0 mi West 5.8 mph - N/A   Clear
1:35 AM -9.4 °F -20.9 °F -22.0 °F 54% 30.31 in 10.0 mi WNW 4.6 mph - N/A   Clear
1:55 AM -9.4 °F -20.9 °F -22.0 °F 54% 30.32 in 10.0 mi WNW 4.6 mph - N/A   Clear
2:15 AM -9.4 °F -20.9 °F -22.0 °F 54% 30.34 in 10.0 mi West 4.6 mph - N/A   Clear
2:35 AM -9.4 °F -18.6 °F -20.2 °F 59% 30.35 in 10.0 mi WSW 3.5 mph - N/A   Clear
2:55 AM -9.4 °F - -23.8 °F 49% 30.36 in 10.0 mi Calm Calm - N/A   Clear
3:15 AM -9.4 °F - -23.8 °F 49% 30.37 in 10.0 mi Calm Calm - N/A   Clear
3:35 AM -11.2 °F - -20.2 °F 64% 30.38 in 10.0 mi Calm Calm - N/A   Clear
3:55 AM -11.2 °F - -25.6 °F 49% 30.39 in 10.0 mi Calm Calm - N/A   Clear
4:15 AM -11.2 °F - -20.2 °F 64% 30.39 in 10.0 mi Calm Calm - N/A   Clear
4:35 AM -11.2 °F -20.6 °F -23.8 °F 54% 30.40 in 10.0 mi West 3.5 mph - N/A   Clear
4:55 AM -11.2 °F -23.0 °F -23.8 °F 54% 30.41 in 10.0 mi West 4.6 mph - N/A   Clear
5:15 AM -11.2 °F -20.6 °F -23.8 °F 54% 30.42 in 10.0 mi West 3.5 mph - N/A   Clear
5:35 AM -11.2 °F -20.6 °F -23.8 °F 54% 30.43 in 10.0 mi West 3.5 mph - N/A   Clear
5:55 AM -11.2 °F -23.0 °F -23.8 °F 54% 30.44 in 10.0 mi West 4.6 mph - N/A   Clear
6:15 AM -11.2 °F -23.0 °F -23.8 °F 54% 30.45 in 10.0 mi West 4.6 mph - N/A   Clear
6:35 AM -13.0 °F -28.6 °F -25.6 °F 53% 30.46 in 10.0 mi WSW 6.9 mph - N/A   Clear
6:55 AM -13.0 °F -25.1 °F -23.8 °F 59% 30.47 in 10.0 mi West 4.6 mph - N/A   Clear
7:15 AM -13.0 °F -25.1 °F -23.8 °F 59% 30.48 in 10.0 mi West 4.6 mph - N/A   Clear
7:35 AM -11.2 °F -26.4 °F -23.8 °F 54% 30.48 in 10.0 mi West 6.9 mph - N/A   Clear
7:55 AM -11.2 °F -26.4 °F -22.0 °F 59% 30.50 in 10.0 mi West 6.9 mph - N/A   Clear
8:15 AM -9.4 °F -25.6 °F -23.8 °F 49% 30.51 in 10.0 mi West 8.1 mph - N/A   Clear
8:35 AM -7.6 °F -24.6 °F -20.2 °F 54% 30.52 in 10.0 mi West 9.2 mph - N/A   Clear
8:55 AM -7.6 °F -24.6 °F -23.8 °F 45% 30.53 in 10.0 mi West 9.2 mph - N/A   Clear
9:15 AM -7.6 °F -24.6 °F -20.2 °F 54% 30.54 in 10.0 mi West 9.2 mph - N/A   Clear
9:35 AM -5.8 °F -22.4 °F -20.2 °F 50% 30.54 in 10.0 mi West 9.2 mph - N/A   Clear
9:55 AM -5.8 °F -24.4 °F -20.2 °F 50% 30.53 in 10.0 mi WNW 11.5 mph - N/A   Clear
10:15 AM -4.0 °F -23.0 °F -20.2 °F 46% 30.53 in 10.0 mi WNW 12.7 mph - N/A   Clear
10:35 AM -2.2 °F -21.5 °F -20.2 °F 42% 30.54 in 10.0 mi WNW 13.8 mph 17.3 mph N/A   Clear
10:55 AM -2.2 °F -18.0 °F -20.2 °F 42% 30.53 in 10.0 mi West 9.2 mph - N/A   Clear
11:15 AM -0.4 °F -16.7 °F -18.4 °F 43% 30.53 in 10.0 mi WNW 10.4 mph - N/A   Clear
11:35 AM -0.4 °F -13.4 °F -18.4 °F 43% 30.53 in 10.0 mi West 6.9 mph - N/A   Clear
11:55 AM -0.4 °F -18.4 °F -20.2 °F 39% 30.52 in 10.0 mi West 12.7 mph - N/A   Clear
12:15 PM 1.4 °F -13.5 °F -16.6 °F 43% 30.52 in 10.0 mi WSW 9.2 mph - N/A   Clear
12:35 PM 1.4 °F -14.5 °F -20.2 °F 36% 30.52 in 10.0 mi West 10.4 mph - N/A   Clear
12:55 PM 1.4 °F -11.3 °F -18.4 °F 39% 30.52 in 10.0 mi NW 6.9 mph - N/A   Clear
1:15 PM 3.2 °F -11.3 °F -18.4 °F 36% 30.51 in 10.0 mi West 9.2 mph - N/A   Clear
1:35 PM 3.2 °F -11.3 °F -18.4 °F 36% 30.52 in 10.0 mi NW 9.2 mph - N/A   Clear
1:55 PM 3.2 °F -10.3 °F -18.4 °F 36% 30.52 in 10.0 mi WNW 8.1 mph - N/A   Clear
2:15 PM 3.2 °F -10.3 °F -18.4 °F 36% 30.54 in 10.0 mi WNW 8.1 mph - N/A   Clear
2:35 PM 3.2 °F -7.8 °F -18.4 °F 36% 30.54 in 10.0 mi NNW 5.8 mph - N/A   Clear
2:55 PM 1.4 °F -11.3 °F -18.4 °F 39% 30.54 in 10.0 mi NW 6.9 mph - N/A   Clear
3:15 PM 1.4 °F -9.9 °F -18.4 °F 39% 30.55 in 10.0 mi West 5.8 mph - N/A   Clear
3:35 PM 1.4 °F - -18.4 °F 39% 30.54 in 10.0 mi Calm Calm - N/A   Clear
3:55 PM 1.4 °F -6.2 °F -16.6 °F 43% 30.54 in 10.0 mi WNW 3.5 mph - N/A   Clear
4:15 PM -0.4 °F - -18.4 °F 43% 30.54 in 10.0 mi Calm Calm - N/A   Clear
4:35 PM -2.2 °F - -16.6 °F 50% 30.54 in 10.0 mi Calm Calm - N/A   Clear
4:55 PM -2.2 °F -12.5 °F -18.4 °F 46% 30.55 in 10.0 mi West 4.6 mph - N/A   Clear
5:15 PM -2.2 °F -12.5 °F -18.4 °F 46% 30.55 in 10.0 mi West 4.6 mph - N/A   Clear
5:35 PM -5.8 °F - -16.6 °F 60% 30.55 in 10.0 mi Calm Calm - N/A   Clear
5:55 PM -4.0 °F - -11.2 °F 71% 30.54 in 10.0 mi Calm Calm - N/A   Clear
6:15 PM -5.8 °F - -22.0 °F 46% 30.54 in 10.0 mi Calm Calm - N/A   Clear
6:35 PM -5.8 °F - -14.8 °F 65% 30.53 in 10.0 mi Calm Calm - N/A   Clear
6:55 PM -5.8 °F - -9.4 °F 84% 30.54 in 10.0 mi Calm Calm - N/A   Clear
7:15 PM -5.8 °F - - N/A% 30.52 in 10.0 mi Calm Calm - N/A   Clear
7:35 PM -5.8 °F - - N/A% 30.51 in 10.0 mi Calm Calm - N/A   Clear
7:55 PM -5.8 °F - -27.4 °F 35% 30.52 in 10.0 mi Calm Calm - N/A   Clear
8:15 PM -5.8 °F -14.5 °F -18.4 °F 55% 30.52 in 10.0 mi SSW 3.5 mph - N/A   Clear
8:35 PM -5.8 °F -14.5 °F -16.6 °F 60% 30.51 in 10.0 mi SSE 3.5 mph - N/A   Clear
8:55 PM -5.8 °F - -14.8 °F 65% 30.50 in 10.0 mi Calm Calm - N/A   Clear
9:15 PM -4.0 °F - -14.8 °F 60% 30.50 in 10.0 mi Calm Calm - N/A   Clear
9:35 PM -2.2 °F - -11.2 °F 66% 30.50 in 10.0 mi Calm Calm - N/A   Clear
9:55 PM -2.2 °F - -14.8 °F 55% 30.51 in 10.0 mi Calm Calm - N/A   Clear
10:15 PM -2.2 °F - -16.6 °F 50% 30.50 in 10.0 mi Calm Calm - N/A   Clear
10:35 PM -2.2 °F - -14.8 °F 55% 30.49 in 10.0 mi Calm Calm - N/A   Mostly Cloudy
10:55 PM -2.2 °F - -9.4 °F 71% 30.49 in 10.0 mi Calm Calm - N/A   Overcast
11:15 PM -0.4 °F -8.3 °F - N/A% 30.50 in 10.0 mi SSW 3.5 mph - N/A   Overcast
11:35 PM -0.4 °F - - N/A% 30.49 in 10.0 mi Calm Calm - N/A   Mostly Cloudy
11:55 PM -0.4 °F - -29.2 °F 25% 30.47 in 10.0 mi Calm Calm - N/A   Overcast